User: anonymous   Login
Location: Bismarck
(46.7731°N, 100.8200°W)
Time: 09:22:26
(UTC-05:00)
Language:

Landsat 7 - Orbit

View from above orbital plane
View from above orbital plane
View from above satellite
View from above satellite

Ground track
Ground track

The orbit data is extracted from the following two-line orbital elements,

1 25682U 99020A   15214.07664774 -.00000416  00000-0 -82314-4 0  9992
2 25682 098.2145 283.3892 0000982 073.6100 286.5227 14.57102369866825
Epoch (UTC): 02 August 2015 01:50:22
Eccentricity: 0.0000982
inclination: 98.2145°
perigee height: 702 km
apogee height: 703 km
right ascension of ascending node: 283.3892°
argument of perigee: 73.6100°
revolutions per day: 14.57102369
mean anomaly at epoch: 286.5227°
orbit number at epoch: 86682

The dashed part of the orbit path shows where the satellite is in the earth's shadow,  

DLR